Overview Statistics Trail Chart Weather Telemetry Raw packets
 

This is the latest recevied weather packets stored in our database for station/object W0AKY-13. If no packets are shown the sender has not sent any weather packets the latest 10 day(s).

<< 11 12 13 14 15 16 17 >>
Time Temp. Humidity Pressure Rain* Wind** Luminosity Snow
1788553455 37.22° C 53% 1013.5 hPa 0 mm - 451 W/m² -
1788553150 37.22° C 52% 1013.5 hPa 0 mm - 456 W/m² -
1788552845 37.78° C 52% 1013.6 hPa 0 mm - 467 W/m² -
1788552541 37.22° C 54% 1013.6 hPa 0 mm - 474 W/m² -
1788552239 37.22° C 53% 1013.7 hPa 0 mm - 483 W/m² -
1788551934 37.22° C 53% 1013.6 hPa 0 mm - 502 W/m² -
1788551632 36.67° C 56% 1013.8 hPa 0 mm - 462 W/m² -
1788551327 36.11° C 54% 1013.8 hPa 0 mm - 428 W/m² -
1788551026 36.11° C 54% 1013.8 hPa 0 mm - 522 W/m² -
1788550722 36.67° C 54% 1013.7 hPa 0 mm - 525 W/m² -
1788550417 36.11° C 56% 1013.8 hPa 0 mm - 525 W/m² -
1788550112 36.11° C 55% 1013.9 hPa 0 mm - 529 W/m² -
1788549807 36.11° C 56% 1013.8 hPa 0 mm - 537 W/m² -
1788549504 36.11° C 56% 1013.8 hPa 0 mm - 542 W/m² -
1788549201 35.56° C 58% 1014 hPa 0 mm - 552 W/m² -
1788548897 35.56° C 57% 1013.9 hPa 0 mm - 525 W/m² -
1788548592 35° C 59% 1014.1 hPa 0 mm - 572 W/m² -
1788548288 35° C 59% 1014.1 hPa 0 mm - 513 W/m² -
1788547984 35° C 58% 1014.4 hPa 0 mm - 471 W/m² -
1788547682 35° C 60% 1014.2 hPa 0 mm - 564 W/m² -
1788547378 35° C 57% 1014.2 hPa 0 mm - 575 W/m² -
1788547074 35.56° C 60% 1014.3 hPa 0 mm - 570 W/m² -
1788546774 35.56° C 58% 1014.3 hPa 0 mm - 571 W/m² -
1788546469 35.56° C 59% 1014.3 hPa 0 mm - 572 W/m² -
1788546164 35° C 59% 1014.3 hPa 0 mm - 574 W/m² -

* Rain latest hour (hover to see other rain measurements)
** Current wind speed in m/s (hover to see current wind gust speed)